This demonstration page uses our WeatherBlox Daily Observations layout. Learn more.

Left ArrowRight Arrow

44.89941, -97.11507

Hourly Observations for November 30, 2021

Temp ( °F °C ) Dew Point ( °F °C ) Humidity (%) Winds ( mph kmh ) Pressure ( in mb ) Visibility ( mi km ) Precip ( " mm )
12:53 am 00:53 Clear 37 2.8 32 undefined 82 82 WNW 3 6 30.06 1018 10 16 N/A
1:53 am 01:53 Clear 31 -0.6 29 -1.7 92 92 NW 6 9 30.08 1019 10 16 N/A
2:53 am 02:53 Clear 31 -0.6 30 -1.1 96 96 NNW 3 6 30.11 1020 10 16 N/A
3:53 am 03:53 Clear with Mist and Fog 27 -2.8 26 -3.3 96 96 N 5 7 30.13 1020 2 3 N/A
3:55 am 03:55 Clear with Mist and Fog 26 -3.3 26 -3.3 100 100 N 5 7 30.19 1022 1 2 N/A
4:02 am 04:02 Clear with Freezing Fog 27 -2.8 26 -3.3 96 96 N 3 6 30.19 1022 1 1 N/A
4:11 am 04:11 Clear with Mist and Fog 29 -1.7 28 -2.2 96 96 NNW 5 7 30.18 1022 2 2 N/A
4:13 am 04:13 Clear with Mist and Fog 30 -1.1 29 -1.7 96 96 NNW 3 6 30.18 1022 3 5 N/A
4:32 am 04:32 Clear with Mist and Fog 28 -2.2 28 -2.2 100 100 NNW 3 6 30.19 1022 1 2 N/A
4:44 am 04:44 Clear with Mist and Fog 28 -2.2 27 -2.8 96 96 NW 6 9 30.19 1022 2 3 N/A
4:53 am 04:53 Clear with Mist and Fog 27 -2.8 27 -2.8 100 100 NNE 5 7 30.15 1021 3 4 N/A
4:56 am 04:56 Clear with Mist and Fog 25 -3.9 25 -3.9 100 100 N 3 6 30.21 1023 1 2 N/A
5:04 am 05:04 Clear with Mist and Fog 26 -3.3 26 -3.3 100 100 N 5 7 30.21 1023 3 4 N/A
5:14 am 05:14 Clear with Mist and Fog 27 -2.8 26 -3.3 96 96 NNW 3 6 30.22 1023 2 2 N/A
5:17 am 05:17 Clear with Mist and Fog 27 -2.8 26 -3.3 96 96 NNW 3 6 30.21 1023 3 5 N/A
5:53 am 05:53 Clear 24 -4.4 23 -5 96 96 NNW 7 11 30.20 1023 9 14 N/A
6:21 am 06:21 Clear with Mist and Fog 26 -3.3 25 -3.9 96 96 N 5 7 30.24 1024 2 3 N/A
6:29 am 06:29 Clear with Mist and Fog 25 -3.9 24 -4.4 96 96 N 3 6 30.25 1024 1 2 N/A
6:36 am 06:36 Clear with Mist and Fog 26 -3.3 25 -3.9 96 96 N 5 7 30.24 1024 1 1 N/A
6:44 am 06:44 Clear with Mist and Fog 24 -4.4 23 -5 96 96 N 3 6 30.25 1024 2 3 N/A
6:46 am 06:46 Clear with Mist and Fog 24 -4.4 23 -5 96 96 N 3 6 30.25 1024 4 6 N/A
6:53 am 06:53 Clear with Mist and Fog 25 -3.9 24 -4.4 96 96 N 3 6 30.19 1023 5 8 N/A
7:00 am 07:00 Clear with Mist and Fog 25 -3.9 25 -3.9 100 100 N N/A 30.24 1024 2 2 N/A
7:05 am 07:05 Clear with Mist and Fog 25 -3.9 25 -3.9 100 100 N N/A 30.24 1024 1 1 N/A
7:20 am 07:20 Mostly Cloudy with Freezing Fog 24 -4.4 24 -4.4 100 100 N N/A 30.24 1024 0 0 N/A
7:35 am 07:35 Clear with Freezing Fog 24 -4.4 22 -5.6 91 91 N N/A 30.24 1024 0 0 N/A
7:53 am 07:53 Sunny with Freezing Fog 23 -5 23 -5 100 100 N N/A 30.19 1022 0 0 N/A
8:00 am 08:00 Sunny with Mist and Fog 23 -5 23 -5 100 100 N N/A 30.25 1024 1 2 N/A
8:05 am 08:05 Sunny with Freezing Fog 23 -5 23 -5 100 100 N N/A 30.25 1024 0 0 N/A
8:16 am 08:16 Sunny with Mist and Fog 24 -4.4 24 -4.4 100 100 N N/A 30.24 1024 1 2 N/A
8:18 am 08:18 Sunny with Mist and Fog 23 -5 23 -5 100 100 N N/A 30.26 1025 3 4 N/A
8:21 am 08:21 Sunny with Mist and Fog 23 -5 23 -5 100 100 S 3 6 30.25 1024 1 2 N/A
8:24 am 08:24 Mostly Cloudy with Freezing Fog 25 -3.9 24 -4.4 96 96 N N/A 30.25 1024 1 1 N/A
8:31 am 08:31 Mostly Cloudy with Freezing Fog 24 -4.4 23 -5 96 96 SSW 3 6 30.24 1024 0 0 N/A
8:35 am 08:35 Sunny with Freezing Fog 26 -3.3 25 -3.9 96 96 SSW 5 7 30.24 1024 1 1 N/A
8:39 am 08:39 Sunny with Mist and Fog 26 -3.3 26 -3.3 100 100 S 5 7 30.24 1024 3 4 N/A
8:46 am 08:46 Sunny 26 -3.3 26 -3.3 100 100 N N/A 30.24 1024 8 13 N/A
8:53 am 08:53 Sunny 27 -2.8 27 -2.8 100 100 N N/A 30.20 1023 8 13 N/A
9:53 am 09:53 Sunny 33 0.6 32 undefined 96 96 undefined N/A 30.20 1023 N/A N/A
10:53 am 10:53 Sunny 40 4.4 31 -0.6 70 70 N N/A 30.18 1022 10 16 N/A
11:53 am 11:53 Sunny 41 5 26 -3.3 55 55 N N/A 30.16 1021 10 16 N/A
12:53 pm 12:53 Sunny 44 6.7 24 -4.4 45 45 S 6 9 30.12 1020 10 16 N/A
1:53 pm 13:53 Sunny 46 7.8 23 -5 40 40 SSE 9 15 30.09 1019 10 16 N/A
2:53 pm 14:53 Mostly Cloudy 44 6.7 26 -3.3 49 49 S 9 15 30.07 1018 10 16 N/A
3:53 pm 15:53 Cloudy 44 6.7 25 -3.9 47 47 SE 7 11 30.02 1017 10 16 N/A
4:53 pm 16:53 Cloudy 44 6.7 25 -3.9 47 47 SE 9 15 29.99 1016 10 16 N/A
5:53 pm 17:53 Cloudy 43 6.1 26 -3.3 51 51 SSE 8 13 29.97 1015 10 16 N/A
6:53 pm 18:53 Cloudy with Light Rain 40 4.4 32 undefined 73 73 SSE 8 13 29.95 1014 10 16 0.00 0.00
7:53 pm 19:53 Cloudy with Rain 39 3.9 33 0.6 79 79 SSE 7 11 29.92 1013 5 8 0.02 0.51
8:53 pm 20:53 Cloudy with Light Rain 39 3.9 35 1.7 86 86 SSE 12 19 29.88 1012 10 16 0.08 2.03
9:53 pm 21:53 Cloudy with Light Rain 39 3.9 36 2.2 89 89 SSE 9 15 29.85 1011 10 16 0.00 0.00
10:53 pm 22:53 Mostly Cloudy 37 2.8 35 1.7 93 93 S 7 11 29.81 1010 10 16 0.00 0.00
11:53 pm 23:53 Clear 35 1.7 34 1.1 96 96 SSW 8 13 29.82 1010 10 16 N/A

Powered by AerisWeather